| time (UTC) | temp F | wind direction | speed MPH | gust MPH | rain 1hr in | rain 24hr in | rain mn in | humidity % | barometer mb |
| 20260502152206 | 83 | 307 | 2.0 | 2.0 | 0.00 | 0.01 | 0.01 | 64 | 1019.1 |
| 20260502151704 | 82 | 305 | 1.0 | 2.0 | 0.00 | 0.01 | 0.01 | 71 | 1019.0 |
| 20260502151201 | 81 | 265 | 3.0 | 3.0 | 0.00 | 0.01 | 0.01 | 70 | 1019.1 |
| 20260502150658 | 80 | 245 | 3.0 | 3.0 | 0.00 | 0.01 | 0.01 | 70 | 1019.0 |
| 20260502150154 | 81 | 250 | 1.0 | 2.0 | 0.00 | 0.01 | 0.01 | 68 | 1019.0 |
| 20260502140118 | 79 | 301 | 0.0 | 0.0 | 0.00 | 0.01 | 0.01 | 70 | 1019.1 |
| 20260502130543 | 75 | 295 | 2.0 | 2.0 | 0.00 | 0.01 | 0.01 | 81 | 1018.5 |
| 20260502123526 | 76 | 286 | 1.0 | 1.0 | 0.00 | 0.01 | 0.01 | 80 | 1018.2 |
| 20260502123023 | 75 | 288 | 0.0 | 0.0 | 0.00 | 0.01 | 0.01 | 76 | 1018.3 |
| 20260502122519 | 76 | 288 | 0.0 | 0.0 | 0.00 | 0.01 | 0.01 | 72 | 1018.2 |
| 20260502122017 | 76 | 289 | 0.0 | 1.0 | 0.00 | 0.01 | 0.01 | 74 | 1018.0 |
| 20260502121514 | 75 | 288 | 0.0 | 0.0 | 0.00 | 0.01 | 0.01 | 75 | 1018.0 |
| 20260502121011 | 75 | 288 | 1.0 | 2.0 | 0.00 | 0.01 | 0.01 | 80 | 1017.9 |
| 20260502120508 | 75 | 296 | 0.0 | 0.0 | 0.00 | 0.01 | 0.01 | 75 | 1018.0 |
| 20260502115502 | 71 | 294 | 0.0 | 0.0 | 0.00 | 0.01 | 0.01 | 77 | 1017.9 |
| 20260502114958 | 70 | 298 | 1.0 | 1.0 | 0.00 | 0.01 | 0.01 | 81 | 1017.8 |
| 20260502114455 | 70 | 302 | 0.0 | 0.0 | 0.00 | 0.01 | 0.01 | 83 | 1017.8 |
| 20260502113952 | 68 | 304 | 1.0 | 1.0 | 0.00 | 0.01 | 0.01 | 84 | 1017.8 |
| 20260502113449 | 69 | 289 | 0.0 | 0.0 | 0.00 | 0.01 | 0.01 | 87 | 1017.5 |
| 20260502112948 | 68 | 289 | 0.0 | 0.0 | 0.00 | 0.01 | 0.01 | 89 | 1017.4 |
| 20260502112445 | 66 | 299 | 1.0 | 1.0 | 0.00 | 0.01 | 0.01 | 91 | 1017.5 |
| 20260502111942 | 64 | 302 | 0.0 | 0.0 | 0.00 | 0.01 | 0.01 | 93 | 1017.4 |
| 20260502111440 | 64 | 294 | 0.0 | 0.0 | 0.00 | 0.01 | 0.01 | 94 | 1017.3 |
| 20260502110937 | 64 | 300 | 0.0 | 0.0 | 0.00 | 0.01 | 0.01 | 97 | 1017.2 |
| 20260502110435 | 63 | 309 | 0.0 | 0.0 | 0.00 | 0.01 | 0.01 | 98 | 1017.3 |
| 20260502105931 | 62 | 300 | 0.0 | 0.0 | 0.00 | 0.01 | 0.01 | 98 | 1017.0 |
| 20260502105429 | 62 | 298 | 0.0 | 0.0 | 0.00 | 0.01 | 0.01 | 98 | 1017.0 |
| 20260502104927 | 61 | 297 | 0.0 | 0.0 | 0.00 | 0.01 | 0.01 | 99 | 1017.3 |
| 20260502104424 | 61 | 295 | 0.0 | 0.0 | 0.00 | 0.01 | 0.01 | 99 | 1017.1 |
| 20260502103921 | 61 | 296 | 0.0 | 0.0 | 0.00 | 0.01 | 0.01 | 99 | 1017.0 |
| 20260502103419 | 60 | 317 | 1.0 | 1.0 | 0.00 | 0.01 | 0.01 | 99 | 1017.0 |
| 20260502102915 | 60 | 304 | 0.0 | 0.0 | 0.00 | 0.01 | 0.01 | 99 | 1017.0 |
| 20260502102412 | 60 | 304 | 0.0 | 0.0 | 0.00 | 0.01 | 0.01 | 99 | 1017.0 |
| 20260502101909 | 60 | 304 | 0.0 | 0.0 | 0.00 | 0.01 | 0.01 | 99 | 1016.9 |
| 20260502101408 | 60 | 321 | 1.0 | 1.0 | 0.00 | 0.01 | 0.01 | 99 | 1016.7 |
| 20260502100905 | 60 | 305 | 0.0 | 0.0 | 0.00 | 0.01 | 0.01 | 99 | 1017.0 |
| 20260502100405 | 60 | 296 | 0.0 | 0.0 | 0.00 | 0.01 | 0.01 | 99 | 1016.9 |
| 20260502091338 | 61 | 306 | 0.0 | 0.0 | 0.00 | 0.00 | 0.00 | 99 | 1016.2 |
| 20260502090836 | 61 | 294 | 1.0 | 1.0 | 0.00 | 0.00 | 0.00 | 99 | 1016.2 |
| 20260502090332 | 61 | 311 | 0.0 | 0.0 | 0.00 | 0.00 | 0.00 | 99 | 1016.1 |
| 20260502071227 | 63 | 304 | 0.0 | 1.0 | 0.00 | 0.00 | 0.00 | 99 | 1016.1 |
| 20260502070726 | 63 | 310 | 0.0 | 0.0 | 0.00 | 0.00 | 0.00 | 99 | 1016.1 |
| 20260502070223 | 63 | 311 | 0.0 | 0.0 | 0.00 | 0.00 | 0.00 | 99 | 1016.1 |
| 20260502065721 | 63 | 310 | 0.0 | 0.0 | 0.00 | 0.00 | 0.00 | 99 | 1016.0 |
| 20260502065219 | 63 | 310 | 0.0 | 0.0 | 0.00 | 0.00 | 0.00 | 99 | 1016.0 |
| 20260502064717 | 63 | 308 | 0.0 | 0.0 | 0.00 | 0.00 | 0.00 | 99 | 1016.1 |
| 20260502064215 | 63 | 304 | 0.0 | 0.0 | 0.00 | 0.00 | 0.00 | 99 | 1016.2 |
| 20260502063712 | 63 | 306 | 0.0 | 0.0 | 0.00 | 0.00 | 0.00 | 99 | 1016.1 |
| 20260502063210 | 63 | 303 | 0.0 | 0.0 | 0.00 | 0.00 | 0.00 | 99 | 1016.1 |
| 20260502062706 | 63 | 302 | 0.0 | 0.0 | 0.00 | 0.00 | 0.00 | 99 | 1016.0 |
| 20260502062204 | 63 | 302 | 0.0 | 1.0 | 0.00 | 0.00 | 0.00 | 99 | 1016.2 |
| 20260502061703 | 63 | 293 | 0.0 | 0.0 | 0.00 | 0.00 | 0.00 | 99 | 1016.2 |
| 20260502061159 | 63 | 293 | 0.0 | 0.0 | 0.00 | 0.00 | 0.00 | 99 | 1016.2 |
| 20260502060655 | 63 | 293 | 0.0 | 0.0 | 0.00 | 0.00 | 0.00 | 99 | 1016.0 |
| 20260502060151 | 64 | 293 | 0.0 | 0.0 | 0.00 | 0.00 | 0.00 | 99 | 1016.3 |
| 20260502055649 | 64 | 293 | 0.0 | 0.0 | 0.00 | 0.00 | 0.00 | 99 | 1016.5 |
| 20260502055147 | 64 | 293 | 0.0 | 0.0 | 0.00 | 0.00 | 0.00 | 99 | 1016.4 |
| 20260502054646 | 64 | 293 | 0.0 | 0.0 | 0.00 | 0.00 | 0.00 | 99 | 1016.5 |
| 20260502054143 | 64 | 293 | 0.0 | 0.0 | 0.00 | 0.00 | 0.00 | 99 | 1016.6 |
| 20260502053640 | 64 | 293 | 0.0 | 0.0 | 0.00 | 0.00 | 0.00 | 99 | 1016.4 |
| 20260502053137 | 64 | 293 | 0.0 | 0.0 | 0.00 | 0.00 | 0.00 | 99 | 1016.5 |
| 20260502052635 | 64 | 307 | 0.0 | 0.0 | 0.00 | 0.00 | 0.00 | 99 | 1016.6 |
| 20260502052133 | 64 | 311 | 0.0 | 0.0 | 0.00 | 0.00 | 0.00 | 99 | 1016.4 |
| 20260502051631 | 64 | 319 | 0.0 | 0.0 | 0.00 | 0.00 | 0.00 | 99 | 1016.4 |
| 20260502051129 | 64 | 308 | 0.0 | 0.0 | 0.00 | 0.00 | 0.00 | 99 | 1016.7 |
| 20260502050625 | 64 | 308 | 0.0 | 0.0 | 0.00 | 0.00 | 0.00 | 99 | 1016.6 |
| 20260502050122 | 64 | 307 | 0.0 | 0.0 | 0.00 | 0.00 | 0.00 | 99 | 1016.7 |
| 20260502045618 | 64 | 306 | 0.0 | 0.0 | 0.00 | 0.00 | 0.00 | 99 | 1017.0 |
| 20260502045115 | 64 | 313 | 0.0 | 0.0 | 0.00 | 0.00 | 0.00 | 99 | 1017.1 |
| 20260502044612 | 64 | 309 | 0.0 | 0.0 | 0.00 | 0.00 | 0.00 | 99 | 1017.1 |
| 20260502044109 | 64 | 308 | 0.0 | 0.0 | 0.00 | 0.00 | 0.00 | 99 | 1017.1 |
| 20260502043606 | 64 | 307 | 0.0 | 0.0 | 0.00 | 0.00 | 0.00 | 99 | 1017.2 |
| 20260502043102 | 64 | 305 | 1.0 | 1.0 | 0.00 | 0.00 | 0.00 | 99 | 1017.2 |
| 20260502042557 | 64 | 313 | 0.0 | 0.0 | 0.00 | 0.00 | 0.00 | 99 | 1017.2 |
| 20260502042055 | 64 | 309 | 0.0 | 0.0 | 0.00 | 0.00 | 0.00 | 99 | 1017.4 |
| 20260502041553 | 64 | 312 | 0.0 | 0.0 | 0.00 | 0.00 | 0.00 | 99 | 1017.4 |
| 20260502041049 | 64 | 313 | 0.0 | 0.0 | 0.00 | 0.00 | 0.00 | 99 | 1017.8 |
| 20260502040546 | 64 | 313 | 0.0 | 0.0 | 0.00 | 0.00 | 0.00 | 99 | 1017.7 |
| 20260502040043 | 64 | 316 | 0.0 | 0.0 | 0.00 | 1.40 | 1.40 | 99 | 1017.7 |
| 20260502035539 | 64 | 306 | 0.0 | 0.0 | 0.00 | 1.40 | 1.40 | 99 | 1017.6 |
| 20260502035037 | 65 | 312 | 0.0 | 0.0 | 0.00 | 1.40 | 1.40 | 99 | 1017.8 |
| 20260502034535 | 65 | 312 | 0.0 | 0.0 | 0.00 | 1.40 | 1.40 | 99 | 1017.8 |
| 20260502034032 | 65 | 312 | 0.0 | 0.0 | 0.00 | 1.40 | 1.40 | 99 | 1017.7 |
| 20260502033530 | 66 | 312 | 0.0 | 0.0 | 0.00 | 1.40 | 1.40 | 99 | 1017.8 |
| 20260502033027 | 66 | 311 | 0.0 | 0.0 | 0.00 | 1.40 | 1.40 | 99 | 1017.8 |
| 20260502032523 | 66 | 312 | 0.0 | 0.0 | 0.00 | 1.40 | 1.40 | 99 | 1017.7 |
| 20260502032020 | 66 | 312 | 0.0 | 0.0 | 0.00 | 1.40 | 1.40 | 99 | 1017.6 |
| 20260502031518 | 66 | 312 | 0.0 | 0.0 | 0.00 | 1.40 | 1.40 | 99 | 1018.0 |
| 20260502031016 | 66 | 312 | 0.0 | 0.0 | 0.00 | 1.40 | 1.40 | 99 | 1017.7 |
| 20260502030514 | 67 | 312 | 0.0 | 0.0 | 0.00 | 1.40 | 1.40 | 99 | 1017.8 |
| 20260502030011 | 66 | 312 | 0.0 | 0.0 | 0.00 | 1.40 | 1.40 | 99 | 1017.7 |
| 20260502025508 | 67 | 312 | 0.0 | 0.0 | 0.00 | 1.40 | 1.40 | 99 | 1017.8 |
| 20260502025007 | 67 | 307 | 0.0 | 0.0 | 0.00 | 1.40 | 1.40 | 99 | 1017.5 |
| 20260502024503 | 67 | 306 | 0.0 | 0.0 | 0.00 | 1.40 | 1.40 | 99 | 1017.6 |
| 20260502023957 | 67 | 306 | 0.0 | 0.0 | 0.00 | 1.40 | 1.40 | 99 | 1017.6 |
| 20260502023454 | 67 | 306 | 0.0 | 0.0 | 0.00 | 1.40 | 1.40 | 99 | 1017.5 |
| 20260502022951 | 68 | 306 | 0.0 | 0.0 | 0.00 | 1.40 | 1.40 | 99 | 1017.7 |
| 20260502022447 | 68 | 306 | 0.0 | 0.0 | 0.00 | 1.40 | 1.40 | 99 | 1017.6 |
| 20260502021945 | 68 | 306 | 0.0 | 0.0 | 0.00 | 1.40 | 1.40 | 99 | 1017.4 |
| 20260502021442 | 68 | 306 | 0.0 | 0.0 | 0.00 | 1.40 | 1.40 | 99 | 1017.3 |
| 20260502020939 | 68 | 306 | 0.0 | 0.0 | 0.00 | 1.40 | 1.40 | 99 | 1017.2 |
| 20260502020437 | 68 | 306 | 0.0 | 0.0 | 0.00 | 1.40 | 1.40 | 99 | 1017.2 |
| 20260502015933 | 68 | 306 | 0.0 | 0.0 | 0.00 | 1.40 | 1.40 | 99 | 1017.0 |
| 20260502015431 | 68 | 306 | 0.0 | 0.0 | 0.00 | 1.40 | 1.40 | 99 | 1017.1 |
| 20260502014927 | 68 | 306 | 0.0 | 0.0 | 0.00 | 1.40 | 1.40 | 99 | 1017.1 |
| 20260502014424 | 68 | 311 | 0.0 | 0.0 | 0.00 | 1.40 | 1.40 | 99 | 1017.0 |
| 20260502013921 | 68 | 311 | 0.0 | 0.0 | 0.00 | 1.40 | 1.40 | 99 | 1016.9 |
| 20260502013416 | 69 | 311 | 0.0 | 0.0 | 0.00 | 1.40 | 1.40 | 99 | 1017.0 |
| 20260502012913 | 69 | 311 | 0.0 | 0.0 | 0.00 | 1.40 | 1.40 | 99 | 1016.7 |
| 20260502012411 | 69 | 312 | 0.0 | 0.0 | 0.00 | 1.40 | 1.40 | 99 | 1016.6 |
| 20260502011908 | 69 | 307 | 0.0 | 0.0 | 0.00 | 1.40 | 1.40 | 99 | 1016.9 |
| 20260502011404 | 69 | 307 | 0.0 | 0.0 | 0.00 | 1.40 | 1.40 | 99 | 1016.7 |
| 20260502010901 | 69 | 308 | 0.0 | 0.0 | 0.00 | 1.40 | 1.40 | 99 | 1016.7 |
| 20260502010358 | 69 | 306 | 0.0 | 0.0 | 0.00 | 1.40 | 1.40 | 99 | 1017.0 |
| 20260502005855 | 69 | 306 | 0.0 | 0.0 | 0.00 | 1.40 | 1.40 | 99 | 1016.6 |
| 20260502005352 | 69 | 306 | 0.0 | 0.0 | 0.00 | 1.40 | 1.40 | 99 | 1016.5 |
| 20260502004850 | 69 | 306 | 0.0 | 0.0 | 0.00 | 1.40 | 1.40 | 99 | 1016.3 |
| 20260502004345 | 69 | 306 | 0.0 | 0.0 | 0.07 | 1.40 | 1.40 | 99 | 1016.5 |
| 20260502003843 | 69 | 306 | 0.0 | 0.0 | 0.07 | 1.40 | 1.40 | 99 | 1016.3 |
| 20260502003340 | 69 | 306 | 0.0 | 0.0 | 0.00 | 1.39 | 1.39 | 99 | 1016.4 |
| 20260502002837 | 69 | 306 | 0.0 | 0.0 | 0.00 | 1.39 | 1.39 | 99 | 1016.4 |
| 20260502002334 | 69 | 306 | 0.0 | 0.0 | 0.00 | 1.39 | 1.39 | 99 | 1016.4 |
| 20260502001831 | 69 | 306 | 0.0 | 0.0 | 0.12 | 1.39 | 1.39 | 99 | 1016.6 |
| 20260502001329 | 69 | 306 | 0.0 | 0.0 | 0.42 | 1.39 | 1.39 | 99 | 1016.3 |
| 20260502000826 | 69 | 306 | 0.0 | 0.0 | 0.59 | 1.37 | 1.37 | 99 | 1016.2 |
| 20260502000325 | 69 | 307 | 0.0 | 0.0 | 0.52 | 1.34 | 1.34 | 99 | 1016.1 |
| 20260501235820 | 69 | 316 | 0.0 | 1.0 | 0.28 | 1.28 | 1.28 | 99 | 1016.2 |
| 20260501235316 | 69 | 306 | 1.0 | 1.0 | 0.38 | 1.25 | 1.25 | 99 | 1016.1 |
| 20260501234811 | 69 | 278 | 0.0 | 0.0 | 0.38 | 1.23 | 1.23 | 99 | 1016.3 |
| 20260501234309 | 69 | 283 | 0.0 | 1.0 | 0.47 | 1.20 | 1.20 | 99 | 1016.1 |
| 20260501233807 | 70 | 273 | 0.0 | 1.0 | 0.59 | 1.17 | 1.17 | 99 | 1016.0 |
| 20260501233304 | 70 | 291 | 0.0 | 0.0 | 1.04 | 1.12 | 1.12 | 99 | 1015.9 |
| 20260501232800 | 70 | 303 | 0.0 | 0.0 | 1.13 | 1.07 | 1.07 | 99 | 1016.0 |
| 20260501232257 | 70 | 291 | 1.0 | 2.0 | 0.47 | 0.95 | 0.95 | 99 | 1015.7 |
| 20260501231754 | 70 | 290 | 0.0 | 1.0 | 0.12 | 0.88 | 0.88 | 99 | 1015.7 |
| 20260501231253 | 70 | 290 | 0.0 | 0.0 | 0.31 | 0.87 | 0.87 | 99 | 1015.7 |
| 20260501230750 | 70 | 297 | 0.0 | 0.0 | 0.26 | 0.86 | 0.86 | 99 | 1015.5 |
| 20260501230249 | 70 | 301 | 0.0 | 0.0 | 0.07 | 0.83 | 0.83 | 99 | 1015.7 |
| 20260501225746 | 70 | 297 | 0.0 | 0.0 | 0.00 | 0.82 | 0.82 | 99 | 1015.6 |
| 20260501225243 | 70 | 297 | 0.0 | 0.0 | 0.00 | 0.82 | 0.82 | 99 | 1015.7 |
| 20260501224739 | 70 | 300 | 0.0 | 0.0 | 0.00 | 0.82 | 0.82 | 99 | 1015.6 |
| 20260501224237 | 70 | 341 | 1.0 | 1.0 | 0.00 | 0.82 | 0.82 | 99 | 1015.6 |
| 20260501223733 | 70 | 336 | 0.0 | 0.0 | 0.00 | 0.82 | 0.82 | 99 | 1015.6 |
| 20260501223230 | 70 | 308 | 0.0 | 0.0 | 0.00 | 0.82 | 0.82 | 99 | 1015.4 |
| 20260501222726 | 70 | 284 | 0.0 | 0.0 | 0.00 | 0.82 | 0.82 | 99 | 1015.4 |
| 20260501222223 | 69 | 285 | 0.0 | 0.0 | 0.00 | 0.82 | 0.82 | 99 | 1015.5 |
| 20260501221720 | 69 | 309 | 0.0 | 0.0 | 0.00 | 0.82 | 0.82 | 99 | 1015.6 |
| 20260501221217 | 69 | 278 | 0.0 | 0.0 | 0.00 | 0.82 | 0.82 | 99 | 1015.2 |
| 20260501220714 | 70 | 278 | 0.0 | 0.0 | 0.00 | 0.82 | 0.82 | 99 | 1015.3 |
| 20260501220211 | 70 | 305 | 1.0 | 1.0 | 0.00 | 0.82 | 0.82 | 99 | 1015.3 |
| 20260501215709 | 70 | 278 | 0.0 | 1.0 | 0.00 | 0.82 | 0.82 | 98 | 1015.2 |
| 20260501215203 | 70 | 258 | 2.0 | 2.0 | 0.00 | 0.82 | 0.82 | 98 | 1015.5 |
| 20260501214659 | 70 | 276 | 0.0 | 0.0 | 0.00 | 0.82 | 0.82 | 98 | 1015.3 |
| 20260501214155 | 70 | 293 | 2.0 | 2.0 | 0.05 | 0.82 | 0.82 | 98 | 1015.2 |
| 20260501213652 | 69 | 304 | 0.0 | 0.0 | 0.17 | 0.82 | 0.82 | 98 | 1015.2 |
| 20260501213147 | 70 | 266 | 1.0 | 1.0 | 0.47 | 0.81 | 0.81 | 97 | 1015.4 |
| 20260501212644 | 70 | 309 | 0.0 | 1.0 | 1.06 | 0.80 | 0.80 | 97 | 1015.2 |
| 20260501212141 | 70 | 321 | 0.0 | 0.0 | 1.49 | 0.74 | 0.74 | 97 | 1015.2 |
| 20260501211638 | 70 | 293 | 0.0 | 0.0 | 1.87 | 0.62 | 0.62 | 97 | 1015.5 |
| 20260501211135 | 70 | 293 | 1.0 | 1.0 | 2.53 | 0.49 | 0.49 | 96 | 1015.3 |
| 20260501210632 | 71 | 332 | 1.0 | 1.0 | 1.63 | 0.31 | 0.31 | 95 | 1015.4 |
| 20260501210129 | 71 | 309 | 0.0 | 1.0 | 0.24 | 0.07 | 0.07 | 95 | 1015.5 |
| 20260501205625 | 71 | 302 | 0.0 | 0.0 | 0.05 | 0.04 | 0.04 | 95 | 1015.4 |
| 20260501205123 | 71 | 327 | 1.0 | 1.0 | 0.00 | 0.03 | 0.03 | 95 | 1015.3 |
| 20260501204619 | 71 | 286 | 0.0 | 1.0 | 0.07 | 0.03 | 0.03 | 95 | 1015.5 |
| 20260501204115 | 73 | 282 | 1.0 | 1.0 | 0.07 | 0.03 | 0.03 | 94 | 1015.5 |
| 20260501203612 | 73 | 278 | 1.0 | 1.0 | 0.05 | 0.02 | 0.02 | 93 | 1015.1 |
| 20260501203109 | 74 | 306 | 1.0 | 1.0 | 0.05 | 0.02 | 0.02 | 92 | 1014.9 |
| 20260501202606 | 73 | 283 | 0.0 | 1.0 | 0.12 | 0.02 | 0.02 | 91 | 1015.2 |
| 20260501202103 | 74 | 278 | 2.0 | 3.0 | 0.07 | 0.01 | 0.01 | 89 | 1015.0 |
| 20260501201600 | 75 | 303 | 2.0 | 2.0 | 0.00 | 0.00 | 0.00 | 87 | 1014.5 |
| 20260501201056 | 75 | 312 | 1.0 | 1.0 | 0.00 | 0.00 | 0.00 | 86 | 1014.9 |
| 20260501200553 | 75 | 288 | 1.0 | 2.0 | 0.00 | 0.00 | 0.00 | 86 | 1014.6 |
| 20260501200051 | 75 | 11 | 1.0 | 2.0 | 0.00 | 0.00 | 0.00 | 86 | 1014.8 |
| 20260501195548 | 76 | 22 | 2.0 | 3.0 | 0.00 | 0.00 | 0.00 | 84 | 1014.5 |
| 20260501195043 | 77 | 295 | 0.0 | 1.0 | 0.00 | 0.00 | 0.00 | 83 | 1014.5 |
| 20260501194539 | 77 | 291 | 3.0 | 3.0 | 0.00 | 0.00 | 0.00 | 81 | 1014.4 |
| 20260501194035 | 79 | 263 | 1.0 | 2.0 | 0.00 | 0.00 | 0.00 | 78 | 1014.6 |
| 20260501193533 | 77 | 306 | 1.0 | 1.0 | 0.00 | 0.00 | 0.00 | 82 | 1014.5 |
| 20260501193031 | 78 | 145 | 1.0 | 2.0 | 0.00 | 0.00 | 0.00 | 81 | 1014.6 |
| 20260501192528 | 78 | 21 | 3.0 | 3.0 | 0.00 | 0.00 | 0.00 | 80 | 1014.8 |
| 20260501192026 | 77 | 112 | 2.0 | 3.0 | 0.00 | 0.00 | 0.00 | 81 | 1015.0 |
| 20260501191522 | 78 | 314 | 3.0 | 5.0 | 0.00 | 0.00 | 0.00 | 82 | 1015.2 |
| 20260501191020 | 78 | 316 | 3.0 | 5.0 | 0.00 | 0.00 | 0.00 | 81 | 1015.1 |
| 20260501190515 | 78 | 83 | 3.0 | 3.0 | 0.00 | 0.00 | 0.00 | 83 | 1015.0 |
| 20260501190011 | 79 | 252 | 2.0 | 3.0 | 0.00 | 0.00 | 0.00 | 81 | 1015.4 |
| 20260501185507 | 79 | 62 | 3.0 | 5.0 | 0.00 | 0.00 | 0.00 | 80 | 1015.3 |
| 20260501185003 | 79 | 336 | 2.0 | 3.0 | 0.00 | 0.00 | 0.00 | 81 | 1015.5 |
| 20260501184459 | 79 | 349 | 1.0 | 1.0 | 0.00 | 0.00 | 0.00 | 82 | 1015.2 |
| 20260501183954 | 79 | 285 | 0.0 | 1.0 | 0.00 | 0.00 | 0.00 | 81 | 1015.4 |
| 20260501183452 | 78 | 280 | 0.0 | 0.0 | 0.00 | 0.00 | 0.00 | 81 | 1015.6 |
| 20260501182948 | 78 | 278 | 1.0 | 2.0 | 0.00 | 0.00 | 0.00 | 80 | 1015.5 |
| 20260501182445 | 79 | 299 | 1.0 | 2.0 | 0.00 | 0.00 | 0.00 | 80 | 1015.5 |
| 20260501181941 | 78 | 268 | 0.0 | 1.0 | 0.00 | 0.00 | 0.00 | 80 | 1015.5 |
| 20260501181439 | 78 | 258 | 0.0 | 1.0 | 0.00 | 0.00 | 0.00 | 80 | 1015.7 |
| 20260501180936 | 78 | 258 | 1.0 | 1.0 | 0.00 | 0.00 | 0.00 | 81 | 1015.9 |
| 20260501180433 | 78 | 258 | 1.0 | 1.0 | 0.00 | 0.00 | 0.00 | 80 | 1015.8 |
| 20260501175929 | 79 | 258 | 1.0 | 1.0 | 0.00 | 0.00 | 0.00 | 79 | 1015.7 |
| 20260501175426 | 80 | 258 | 3.0 | 3.0 | 0.00 | 0.00 | 0.00 | 77 | 1015.8 |
| 20260501174923 | 82 | 338 | 2.0 | 2.0 | 0.00 | 0.00 | 0.00 | 74 | 1015.9 |
| 20260501174421 | 85 | 9 | 1.0 | 2.0 | 0.00 | 0.00 | 0.00 | 70 | 1016.0 |
| 20260501173918 | 84 | 259 | 2.0 | 3.0 | 0.00 | 0.00 | 0.00 | 73 | 1015.7 |
| 20260501173415 | 83 | 26 | 2.0 | 2.0 | 0.00 | 0.00 | 0.00 | 71 | 1016.1 |
| 20260501172911 | 84 | 297 | 1.0 | 1.0 | 0.00 | 0.00 | 0.00 | 72 | 1016.1 |
| 20260501172406 | 83 | 254 | 1.0 | 2.0 | 0.00 | 0.00 | 0.00 | 72 | 1016.1 |
| 20260501171902 | 83 | 294 | 2.0 | 2.0 | 0.00 | 0.00 | 0.00 | 72 | 1016.2 |
| 20260501171359 | 84 | 302 | 0.0 | 1.0 | 0.00 | 0.00 | 0.00 | 70 | 1016.3 |
| 20260501170855 | 83 | 307 | 2.0 | 3.0 | 0.00 | 0.00 | 0.00 | 69 | 1016.3 |
| 20260501170352 | 82 | 275 | 3.0 | 3.0 | 0.00 | 0.00 | 0.00 | 70 | 1016.6 |
| 20260501165850 | 82 | 286 | 0.0 | 0.0 | 0.00 | 0.00 | 0.00 | 71 | 1016.5 |
| 20260501165348 | 83 | 37 | 1.0 | 1.0 | 0.00 | 0.00 | 0.00 | 71 | 1016.3 |
| 20260501164845 | 82 | 331 | 3.0 | 5.0 | 0.00 | 0.00 | 0.00 | 68 | 1016.7 |
| 20260501164343 | 83 | 12 | 1.0 | 2.0 | 0.00 | 0.00 | 0.00 | 71 | 1016.7 |
| 20260501163838 | 82 | 277 | 1.0 | 1.0 | 0.00 | 0.00 | 0.00 | 70 | 1016.5 |
| 20260501163335 | 82 | 6 | 3.0 | 3.0 | 0.00 | 0.00 | 0.00 | 71 | 1016.7 |
| 20260501162832 | 83 | 300 | 1.0 | 1.0 | 0.00 | 0.00 | 0.00 | 69 | 1016.6 |
| 20260501162329 | 82 | 319 | 1.0 | 2.0 | 0.00 | 0.00 | 0.00 | 73 | 1016.7 |
| 20260501161826 | 82 | 324 | 2.0 | 2.0 | 0.00 | 0.00 | 0.00 | 71 | 1016.9 |
| 20260501161322 | 82 | 59 | 2.0 | 2.0 | 0.00 | 0.00 | 0.00 | 70 | 1016.9 |
| 20260501160819 | 81 | 300 | 0.0 | 1.0 | 0.00 | 0.00 | 0.00 | 74 | 1016.9 |
| 20260501160316 | 81 | 185 | 1.0 | 2.0 | 0.00 | 0.00 | 0.00 | 70 | 1016.7 |
| 20260501155814 | 84 | 317 | 1.0 | 1.0 | 0.00 | 0.00 | 0.00 | 66 | 1017.0 |
| 20260501155310 | 83 | 48 | 1.0 | 2.0 | 0.00 | 0.00 | 0.00 | 72 | 1017.2 |
| 20260501154807 | 84 | 28 | 2.0 | 2.0 | 0.00 | 0.00 | 0.00 | 66 | 1016.7 |
| 20260501154304 | 83 | 242 | 1.0 | 1.0 | 0.00 | 0.00 | 0.00 | 69 | 1017.0 |
| 20260501153802 | 83 | 279 | 2.0 | 3.0 | 0.00 | 0.00 | 0.00 | 68 | 1017.1 |
| 20260501153259 | 82 | 300 | 0.0 | 1.0 | 0.00 | 0.00 | 0.00 | 67 | 1016.9 |